Weather History for Whiteman AFB, MO

Change the Weather History Date:

Friday, March 8, 2013

  Actual Average Record
Temperature  
Mean Temperature 39 °F -  
Max Temperature 47 °F 47 °F 73 °F (2006)
Min Temperature 31 °F 27 °F 12 °F (2008)
Degree Days  
Heating Degree Days 26    
Moisture  
Dew Point 34 °F    
Average Humidity 73    
Maximum Humidity 90    
Minimum Humidity 61    
Precipitation  
Precipitation 0.00 in - - ()
Sea Level Pressure  
Sea Level Pressure 30.16 in    
Wind  
Wind Speed 8 mph (SE)    
Max Wind Speed 14 mph    
Max Gust Speed 21 mph    
Visibility 10 miles    
Events Rain    
Averages and records for this station are not official NWS values.
T = Trace of Precipitation, MM = Missing Value Source: NWS Daily Summary

Daily Weather History Graph

Daily Weather History Graph

Search for Another Location

Airport:

Trip Planner

Search our weather history database for the weather conditions in past years. The results will help you decide how hot, cold, wet, or windy it might be!

Date:

Astronomy

Mar. 08, 2013 Rise Set
Actual Time 6:35 AM CST 6:14 PM CST
Civil Twilight 6:09 AM CST 6:41 PM CST
Nautical Twilight 5:38 AM CST 7:11 PM CST
Astronomical Twilight 5:07 AM CST 7:42 PM CST
Moon 4:18 AM CST (3/8) 3:11 PM CST (3/8)
Length of Visible Light 12h 31m
Length of Day
11h 38m
Waning Crescent, 11% of the Moon is Illuminated
Mar 8
Waning Crescent
Mar 11
New
Mar 19
First Quarter
Mar 27
Full
Apr 2
Last Quarter

Hourly Weather History & Observations

Time (CST) Temp. Windchill Dew Point Humidity Pressure Visibility Wind Dir Wind Speed Gust Speed Precip Events Conditions
12:58 AM 34.7 °F 28.8 °F 28.6 °F 78% 30.27 in 10.0 mi East 6.9 mph - N/A   Clear
1:58 AM 33.6 °F 28.4 °F 28.2 °F 81% 30.27 in 10.0 mi ESE 5.8 mph - N/A   Clear
2:58 AM 34.3 °F 30.2 °F 28.2 °F 78% 30.26 in 10.0 mi ESE 4.6 mph - N/A   Clear
3:58 AM 31.5 °F 26.8 °F 27.9 °F 87% 30.26 in 10.0 mi ESE 4.6 mph - N/A   Clear
4:58 AM 33.4 °F 29.1 °F 29.8 °F 87% 30.25 in 10.0 mi ESE 4.6 mph - N/A   Clear
5:58 AM 33.8 °F 29.6 °F 31.3 °F 90% 30.26 in 10.0 mi SE 4.6 mph - N/A   Clear
6:58 AM 35.8 °F 27.8 °F 32.9 °F 89% 30.28 in 10.0 mi SSE 11.5 mph - N/A   Clear
7:58 AM 37.8 °F 30.2 °F 33.4 °F 84% 30.27 in 10.0 mi SSE 11.5 mph - N/A   Clear
8:58 AM 39.6 °F 31.7 °F 33.6 °F 79% 30.28 in 10.0 mi SSE 13.8 mph 20.7 mph N/A   Clear
9:58 AM 41.0 °F 34.3 °F 33.4 °F 74% 30.26 in 10.0 mi SSE 11.5 mph - N/A   Clear
10:58 AM 43.7 °F 38.1 °F 34.0 °F 69% 30.26 in 10.0 mi SSE 10.4 mph - N/A   Scattered Clouds
11:58 AM 45.1 °F 40.8 °F 34.5 °F 66% 30.25 in 10.0 mi ESE 8.1 mph - N/A   Overcast
12:58 PM 47.3 °F - 34.5 °F 61% 30.21 in 10.0 mi ESE 9.2 mph - N/A   Overcast
1:58 PM 47.1 °F - 34.3 °F 61% 30.20 in 10.0 mi ESE 8.1 mph - N/A   Scattered Clouds
2:58 PM 47.3 °F - 34.5 °F 61% 30.18 in 10.0 mi ESE 9.2 mph - N/A   Mostly Cloudy
3:58 PM 46.4 °F 42.9 °F 34.2 °F 62% 30.17 in 10.0 mi East 6.9 mph - N/A   Overcast
4:58 PM 44.8 °F 39.9 °F 34.5 °F 67% 30.15 in 10.0 mi East 9.2 mph - N/A   Overcast
5:58 PM 43.7 °F 38.1 °F 34.5 °F 70% 30.14 in 10.0 mi ESE 10.4 mph - N/A   Overcast
6:58 PM 44.2 °F 38.8 °F 34.2 °F 68% 30.14 in 10.0 mi SE 10.4 mph - N/A   Overcast
6:59 PM 44.6 °F 39.2 °F 33.8 °F 66% 30.11 in 10.0 mi SE 10.4 mph - N/A   Light Drizzle
7:15 PM 46.4 °F 41.1 °F 33.8 °F 62% 30.11 in 10.0 mi SE 11.5 mph - N/A   Light Drizzle
7:29 PM 46.4 °F 41.5 °F 33.8 °F 62% 30.11 in 10.0 mi SE 10.4 mph - N/A   Overcast
7:32 PM 46.4 °F 41.9 °F 33.8 °F 62% 30.11 in 10.0 mi SE 9.2 mph - N/A   Light Drizzle
7:42 PM 46.4 °F 42.4 °F 33.8 °F 62% 30.11 in 10.0 mi SE 8.1 mph - N/A   Overcast
7:45 PM 46.4 °F 41.9 °F 33.8 °F 62% 30.11 in 10.0 mi ESE 9.2 mph - N/A   Light Drizzle
7:58 PM 45.0 °F 40.6 °F 34.7 °F 67% 30.14 in 10.0 mi ESE 8.1 mph - N/A   Light Drizzle
8:58 PM 45.1 °F 39.9 °F 34.9 °F 67% 30.11 in 10.0 mi SE 10.4 mph - N/A   Light Drizzle
9:23 PM 42.8 °F 36.6 °F 35.6 °F 76% 30.09 in 10.0 mi SE 11.5 mph - N/A   Mostly Cloudy
9:27 PM 44.6 °F 39.2 °F 35.6 °F 71% 30.09 in 10.0 mi SE 10.4 mph - N/A   Light Drizzle
9:28 PM 44.6 °F 39.2 °F 35.6 °F 71% 30.09 in 10.0 mi SE 10.4 mph - N/A   Mostly Cloudy
9:38 PM 44.6 °F 39.2 °F 35.6 °F 71% 30.09 in 10.0 mi SE 10.4 mph - N/A   Light Drizzle
9:58 PM 43.9 °F 37.5 °F 36.7 °F 76% 30.10 in 10.0 mi SE 12.7 mph - N/A Rain Light Rain
10:16 PM 42.8 °F 37.0 °F 37.4 °F 81% 30.08 in 10.0 mi SE 10.4 mph - N/A   Overcast
10:58 PM 43.5 °F 38.3 °F 36.7 °F 77% 30.09 in 10.0 mi SE 9.2 mph - N/A   Overcast
11:14 PM 42.8 °F 38.6 °F 37.4 °F 81% 30.06 in 10.0 mi SSE 6.9 mph - N/A   Light Drizzle
11:58 PM 42.6 °F 37.2 °F 39.6 °F 89% 30.06 in 10.0 mi SSE 9.2 mph - N/A   Light Drizzle
11:59 PM 42.8 °F 37.0 °F 39.2 °F 87% 30.04 in 10.0 mi SSE 10.4 mph - N/A   Overcast